Total_Precipitation_Accumulation
2.24 2.24 2.27 2.17 2.16 2.18 2.36 2.54 2.60 2.38 2.14 1.89 1.70 1.53 1.57 1.63 1.90 1.76 1.48 1.52 1.43 1.34 1.31 1.33 1.48 1.74 1.98 2.17 2.41 2.55 2.69 2.79 2.87 2.85 2.71 2.58 2.63 2.78
1.98 2.04 2.05 2.03 2.14 2.14 2.24 2.41 2.44 2.40 2.25 1.96 1.76 1.66 1.71 1.63 1.78 1.62 1.58 1.74 1.57 1.39 1.30 1.30 1.35 1.48 1.59 1.68 1.78 1.82 1.83 1.89 2.05 2.35 2.35 2.20 2.16 2.27
1.63 1.68 1.74 1.74 1.91 1.95 2.06 2.21 2.31 2.30 2.08 1.86 1.73 1.74 1.78 1.80 1.75 1.62 1.57 1.60 1.58 1.45 1.28 1.23 1.28 1.36 1.43 1.56 1.62 1.60 1.59 1.60 1.74 2.02 2.12 1.96 1.86 1.85
1.52 1.53 1.50 1.52 1.64 1.72 1.82 1.92 2.10 2.19 2.10 1.94 1.79 1.69 1.60 1.67 1.81 1.82 1.77 1.69 1.70 1.75 1.59 1.45 1.42 1.36 1.32 1.45 1.58 1.54 1.50 1.53 1.53 1.68 1.79 1.74 1.76 1.80
1.22 1.25 1.27 1.37 1.52 1.56 1.58 1.71 1.89 1.99 2.11 2.00 1.88 1.78 1.62 1.59 1.76 1.73 1.75 1.98 1.87 1.92 2.04 1.87 1.66 1.48 1.33 1.38 1.50 1.48 1.43 1.50 1.43 1.43 1.62 1.64 1.63 1.68
1.10 1.09 1.04 1.09 1.23 1.38 1.45 1.63 1.84 2.03 2.14 2.10 2.05 1.95 1.83 1.71 1.77 1.90 1.93 2.01 2.03 1.81 1.86 1.90 1.91 1.75 1.52 1.39 1.45 1.51 1.55 1.57 1.55 1.54 1.59 1.56 1.54 1.54
1.00 1.04 1.02 1.04 1.07 1.14 1.13 1.33 1.57 1.86 2.03 2.12 2.10 2.08 1.98 1.88 1.76 1.92 1.98 2.09 2.19 2.14 2.04 1.88 1.88 1.73 1.59 1.51 1.48 1.52 1.64 1.67 1.70 1.69 1.58 1.51 1.46 1.48
1.06 1.03 1.00 0.99 1.09 1.09 1.06 1.11 1.28 1.49 1.70 1.79 1.84 1.86 1.89 1.96 2.05 2.06 2.01 2.04 2.11 2.12 2.00 2.06 2.05 1.97 1.71 1.50 1.53 1.58 1.66 1.71 1.72 1.67 1.53 1.43 1.39 1.43
1.05 1.11 1.13 1.01 1.07 1.10 1.17 1.12 1.06 1.13 1.34 1.54 1.61 1.62 1.71 1.77 2.02 2.06 2.04 2.04 1.92 1.95 1.86 1.97 1.94 1.90 1.76 1.69 1.72 1.61 1.66 1.66 1.71 1.68 1.61 1.55 1.47 1.49
1.00 1.07 1.28 1.29 1.17 1.18 1.25 1.30 1.15 1.00 1.06 1.16 1.33 1.49 1.56 1.74 2.06 2.29 2.24 1.99 1.88 1.88 1.80 1.88 1.82 1.77 1.69 1.63 1.71 1.63 1.61 1.58 1.59 1.65 1.60 1.59 1.56 1.54
0.89 1.03 1.16 1.26 1.25 1.27 1.20 1.24 1.25 1.11 1.09 1.18 1.19 1.30 1.49 1.66 1.94 2.26 2.33 2.20 2.00 1.87 1.73 1.71 1.75 1.78 1.81 1.71 1.66 1.70 1.67 1.66 1.64 1.69 1.70 1.68 1.68 1.72
0.77 0.95 1.18 1.16 1.18 1.26 1.22 1.28 1.36 1.18 1.10 1.21 1.20 1.22 1.28 1.54 1.93 2.14 2.29 2.26 2.12 2.03 1.83 1.77 1.80 1.85 2.12 2.02 1.78 1.68 1.65 1.77 1.83 1.77 1.71 1.77 1.85 1.81
0.77 0.86 0.92 0.96 1.00 1.12 1.18 1.19 1.35 1.28 1.28 1.40 1.44 1.37 1.42 1.48 1.62 1.82 2.10 2.26 2.16 1.97 1.82 1.95 2.06 1.95 1.95 1.97 1.90 1.74 1.67 1.62 1.72 1.82 1.81 1.81 1.84 1.79
0.82 0.82 0.79 0.83 0.89 0.94 0.95 1.02 1.24 1.38 1.43 1.55 1.57 1.51 1.46 1.49 1.53 1.59 1.78 1.94 1.92 1.83 1.75 1.73 1.85 1.83 1.72 1.59 1.60 1.66 1.69 1.68 1.68 1.77 1.83 2.07 1.99 1.94
0.82 0.87 0.88 0.90 0.91 0.88 0.89 0.98 1.15 1.34 1.53 1.57 1.46 1.38 1.42 1.48 1.51 1.64 1.75 1.83 1.84 1.77 1.62 1.49 1.54 1.63 1.57 1.46 1.36 1.43 1.61 1.66 1.59 1.65 1.73 1.78 1.86 1.87
0.89 0.93 0.96 0.95 0.90 0.84 0.91 1.03 1.18 1.39 1.52 1.46 1.42 1.33 1.37 1.52 1.59 1.62 1.71 1.72 1.74 1.74 1.56 1.46 1.49 1.57 1.56 1.43 1.37 1.33 1.40 1.51 1.55 1.59 1.70 1.75 1.74 1.69
0.89 0.95 0.99 1.04 1.03 1.06 1.13 1.19 1.19 1.24 1.32 1.25 1.33 1.31 1.33 1.45 1.50 1.50 1.59 1.57 1.48 1.42 1.42 1.37 1.40 1.49 1.48 1.46 1.47 1.37 1.39 1.43 1.44 1.56 1.70 1.79 1.76 1.61
0.97 0.98 1.06 1.15 1.21 1.27 1.32 1.29 1.23 1.21 1.23 1.24 1.28 1.29 1.26 1.31 1.36 1.45 1.54 1.55 1.57 1.46 1.32 1.28 1.27 1.40 1.48 1.53 1.50 1.38 1.42 1.50 1.59 1.64 1.63 1.64 1.62 1.53
0.93 0.99 1.20 1.23 1.19 1.23 1.31 1.32 1.21 1.13 1.13 1.15 1.16 1.18 1.19 1.21 1.26 1.37 1.47 1.47 1.50 1.47 1.39 1.34 1.35 1.41 1.47 1.38 1.27 1.21 1.35 1.47 1.59 1.67 1.64 1.53 1.45 1.42
0.81 0.91 1.07 1.11 1.12 1.17 1.16 1.12 1.07 1.04 1.06 1.06 1.06 1.05 1.07 1.15 1.22 1.28 1.32 1.29 1.34 1.37 1.39 1.36 1.34 1.36 1.42 1.39 1.30 1.14 1.18 1.36 1.51 1.63 1.60 1.52 1.45 1.62
0.79 0.89 0.98 1.06 1.08 1.08 1.06 1.05 1.05 1.05 1.03 1.03 1.04 1.06 1.08 1.11 1.13 1.14 1.21 1.29 1.27 1.24 1.31 1.30 1.27 1.42 1.42 1.48 1.46 1.24 1.14 1.33 1.52 1.56 1.59 1.68 1.63 1.51
0.78 0.81 0.90 1.00 1.05 1.05 1.03 1.03 1.03 1.05 1.04 1.02 1.02 1.05 1.09 1.12 1.12 1.11 1.15 1.19 1.17 1.17 1.18 1.21 1.26 1.40 1.48 1.54 1.44 1.27 1.20 1.24 1.47 1.71 1.69 1.71 1.62 1.53
0.81 0.81 0.84 0.91 1.00 1.09 1.12 1.10 1.07 1.08 1.08 1.05 1.06 1.09 1.12 1.14 1.13 1.15 1.16 1.18 1.17 1.18 1.21 1.26 1.34 1.46 1.50 1.45 1.42 1.33 1.27 1.25 1.33 1.46 1.52 1.57 1.52 1.44